Tracking 34305 objects as of 7-Jun-2026
HD Live streaming from Space Station
objects crossing your sky now

OSCAR 8

Track OSCAR 8 now!
10-day predictions
OSCAR 8 is classified as:


NORAD ID: 10703
Int'l Code: 1978-026B
Perigee: 894.7 km
Apogee: 908.5 km
Inclination: 99.3 °
Period: 102.9 minutes
Semi major axis: 7272 km
RCS: 0.4491 m2 (medium)
Launch date: March 5, 1978
Source: United States (US)
Launch site: AIR FORCE WESTERN TEST RANGE (AFWTR)

Uplink (MHz): 145.850-145.900
Downlink (MHz): 29.400- 29.500
Beacon (MHz): 29.402
Mode: SSB CW
Call sign:
Status: Inactive


Uplink (MHz): 145.900-146.000
Downlink (MHz): 435.200-435.100
Beacon (MHz): 435.095
Mode: SSB CW
Call sign:
Status: Inactive

Your satellite tracking list
Your tracking list is empty




NASA's NSSDC Master Catalog

Two Line Element Set (TLE):
1 10703U 78026B   26157.74141242  .00000376  00000-0  28780-3 0  9994
2 10703  99.3291 154.0338 0009503   3.9893 170.6988 13.99803163462609
Source of the keplerian elements: AFSPC